�������l�o���
Date,Time,MP-1(��Sv/h),MP-2(��Sv/h),MP-3(��Sv/h),MP-4(��Sv/h),MP-5(��Sv/h),MP-6(��Sv/h),MP-7(��Sv/h),MP-8(��Sv/h),����,����(m/s),���J
2022/05/06,00:00,0.576,0.856,0.546,1.038,0.733,0.347,0.601,0.565,��,4.2,��
2022/05/06,00:10,0.574,0.857,0.546,1.039,0.733,0.347,0.600,0.565,��,4.7,��
2022/05/06,00:20,0.576,0.858,0.547,1.043,0.733,0.348,0.600,0.564,��,6.1,��
2022/05/06,00:30,0.576,0.859,0.548,1.038,0.734,0.347,0.600,0.564,��,7.6,��
2022/05/06,00:40,0.575,0.856,0.547,1.039,0.734,0.349,0.601,0.563,��,6.9,��
2022/05/06,00:50,0.573,0.855,0.548,1.041,0.732,0.349,0.600,0.564,��,6.0,��
2022/05/06,01:00,0.575,0.858,0.545,1.041,0.731,0.348,0.599,0.566,��,5.1,��
2022/05/06,01:10,0.574,0.859,0.548,1.041,0.733,0.348,0.601,0.565,��쐼,4.1,��
2022/05/06,01:20,0.575,0.855,0.547,1.038,0.732,0.348,0.600,0.566,�쐼,3.2,��
2022/05/06,01:30,0.577,0.857,0.547,1.039,0.732,0.347,0.599,0.564,���쐼,3.7,��
2022/05/06,01:40,0.576,0.853,0.548,1.039,0.734,0.347,0.600,0.564,�쐼,2.5,��
2022/05/06,01:50,0.576,0.855,0.548,1.041,0.732,0.348,0.600,0.564,�쐼,2.6,��
2022/05/06,02:00,0.575,0.857,0.544,1.040,0.734,0.350,0.599,0.565,��쐼,3.0,��
2022/05/06,02:10,0.575,0.857,0.546,1.041,0.732,0.349,0.599,0.566,��,2.3,��
2022/05/06,02:20,0.574,0.855,0.546,1.039,0.735,0.348,0.601,0.565,��,1.9,��
2022/05/06,02:30,0.575,0.857,0.546,1.041,0.734,0.348,0.600,0.565,��,1.2,��
2022/05/06,02:40,0.576,0.856,0.547,1.039,0.732,0.348,0.601,0.564,��쓌,1.7,��
2022/05/06,02:50,0.575,0.855,0.546,1.040,0.734,0.349,0.601,0.565,��쓌,2.3,��
2022/05/06,03:00,0.575,0.857,0.546,1.040,0.732,0.349,0.601,0.565,��쓌,2.3,��
2022/05/06,03:10,0.577,0.856,0.547,1.041,0.734,0.348,0.600,0.565,��,1.4,��
2022/05/06,03:20,0.576,0.856,0.546,1.039,0.732,0.348,0.601,0.564,��,1.7,��
2022/05/06,03:30,0.575,0.856,0.547,1.039,0.732,0.347,0.600,0.565,��,1.4,��
2022/05/06,03:40,0.575,0.856,0.547,1.040,0.734,0.349,0.601,0.564,��,1.2,��
2022/05/06,03:50,0.576,0.856,0.545,1.040,0.733,0.347,0.599,0.565,��쐼,1.5,��
2022/05/06,04:00,0.573,0.856,0.546,1.041,0.734,0.347,0.603,0.566,��,0.6,��
2022/05/06,04:10,0.575,0.857,0.547,1.038,0.733,0.347,0.601,0.565,-,CALM,��
2022/05/06,04:20,0.574,0.857,0.547,1.042,0.733,0.347,0.602,0.564,-,CALM,��
2022/05/06,04:30,0.574,0.857,0.548,1.041,0.733,0.349,0.602,0.566,��쐼,0.9,��
2022/05/06,04:40,0.574,0.856,0.547,1.039,0.733,0.347,0.600,0.564,-,CALM,��
2022/05/06,04:50,0.575,0.857,0.546,1.040,0.734,0.348,0.602,0.564,��쓌,0.8,��
2022/05/06,05:00,0.574,0.855,0.547,1.041,0.733,0.348,0.602,0.563,��쓌,0.9,��
2022/05/06,05:10,0.574,0.854,0.547,1.040,0.732,0.346,0.601,0.565,��쓌,2.0,��
2022/05/06,05:20,0.574,0.856,0.547,1.040,0.732,0.349,0.601,0.566,�쓌,2.0,��
2022/05/06,05:30,0.576,0.856,0.547,1.042,0.735,0.348,0.603,0.564,�쓌,2.8,��
2022/05/06,05:40,0.575,0.856,0.547,1.039,0.732,0.350,0.602,0.564,��쓌,2.8,��
2022/05/06,05:50,0.575,0.857,0.547,1.041,0.734,0.347,0.601,0.564,��쓌,3.1,��
2022/05/06,06:00,0.576,0.859,0.548,1.039,0.734,0.347,0.602,0.564,��쓌,2.8,��
2022/05/06,06:10,0.576,0.855,0.546,1.040,0.733,0.348,0.602,0.563,��,2.5,��
2022/05/06,06:20,0.576,0.857,0.548,1.041,0.733,0.349,0.603,0.564,��,2.8,��
2022/05/06,06:30,0.576,0.858,0.548,1.041,0.736,0.349,0.603,0.565,��,3.9,��
2022/05/06,06:40,0.576,0.860,0.547,1.040,0.735,0.348,0.602,0.566,��,4.4,��
2022/05/06,06:50,0.576,0.858,0.546,1.041,0.734,0.347,0.603,0.565,��,3.5,��
2022/05/06,07:00,0.575,0.857,0.548,1.043,0.735,0.347,0.604,0.565,��,2.8,��
2022/05/06,07:10,0.575,0.856,0.548,1.041,0.735,0.346,0.602,0.566,��,2.3,��
2022/05/06,07:20,0.577,0.855,0.549,1.041,0.734,0.346,0.603,0.566,��쐼,1.5,��
2022/05/06,07:30,0.575,0.855,0.548,1.039,0.734,0.347,0.602,0.566,��,2.0,��
2022/05/06,07:40,0.575,0.854,0.548,1.041,0.734,0.347,0.603,0.565,��쐼,1.4,��
2022/05/06,07:50,0.575,0.856,0.548,1.042,0.735,0.347,0.603,0.567,�쐼,0.9,��
2022/05/06,08:00,0.575,0.856,0.549,1.042,0.736,0.346,0.603,0.565,��쓌,2.0,��
2022/05/06,08:10,0.575,0.858,0.547,1.042,0.733,0.346,0.603,0.565,��쓌,2.0,��
2022/05/06,08:20,0.575,0.856,0.549,1.041,0.735,0.347,0.600,0.564,��쓌,2.6,��
2022/05/06,08:30,0.574,0.858,0.549,1.040,0.735,0.347,0.604,0.562,��쓌,3.9,��
2022/05/06,08:40,0.574,0.857,0.547,1.042,0.732,0.345,0.600,0.563,��,5.5,��
2022/05/06,08:50,0.573,0.856,0.548,1.042,0.735,0.347,0.600,0.563,��쓌,6.2,��
2022/05/06,09:00,0.575,0.854,0.547,1.042,0.734,0.347,0.598,0.563,��,7.1,��
2022/05/06,09:10,0.576,0.858,0.546,1.041,0.732,0.348,0.599,0.565,��,5.8,��
2022/05/06,09:20,0.575,0.857,0.546,1.041,0.731,0.348,0.599,0.563,��,6.1,��
2022/05/06,09:30,0.574,0.857,0.546,1.045,0.731,0.346,0.601,0.564,��,7.9,��
2022/05/06,09:40,0.575,0.858,0.546,1.042,0.732,0.348,0.601,0.563,��,9.6,��
2022/05/06,09:50,0.574,0.857,0.546,1.041,0.733,0.347,0.600,0.564,��,9.1,��
2022/05/06,10:00,0.576,0.859,0.546,1.043,0.732,0.348,0.600,0.564,��,11.0,��
2022/05/06,10:10,0.574,0.857,0.547,1.044,0.732,0.347,0.602,0.565,��쓌,12.7,��
2022/05/06,10:20,0.575,0.859,0.545,1.041,0.734,0.347,0.601,0.564,��,11.4,��
2022/05/06,10:30,0.576,0.859,0.546,1.043,0.736,0.347,0.601,0.562,��,12.0,��
2022/05/06,10:40,0.575,0.856,0.546,1.044,0.735,0.348,0.600,0.562,��,11.6,��
2022/05/06,10:50,0.577,0.856,0.547,1.042,0.734,0.347,0.600,0.563,��,10.9,��
2022/05/06,11:00,0.576,0.856,0.547,1.042,0.735,0.347,0.599,0.564,��,10.7,��
2022/05/06,11:10,0.576,0.857,0.547,1.040,0.736,0.347,0.600,0.564,��쓌,10.9,��
2022/05/06,11:20,0.575,0.858,0.548,1.040,0.735,0.347,0.600,0.563,��,11.0,��
2022/05/06,11:30,0.576,0.859,0.545,1.041,0.734,0.347,0.600,0.562,��쓌,13.3,��
2022/05/06,11:40,0.576,0.858,0.549,1.040,0.735,0.347,0.600,0.565,��쓌,15.2,��
2022/05/06,11:50,0.577,0.860,0.548,1.037,0.738,0.348,0.601,0.565,��,14.2,��
2022/05/06,12:00,0.576,0.858,0.546,1.042,0.735,0.348,0.598,0.565,��,13.9,��
2022/05/06,12:10,0.576,0.860,0.548,1.039,0.736,0.347,0.601,0.565,��,15.2,��
2022/05/06,12:20,0.577,0.860,0.546,1.041,0.737,0.348,0.600,0.566,��쓌,13.3,��
2022/05/06,12:30,0.577,0.858,0.548,1.039,0.735,0.348,0.600,0.564,��쓌,13.9,��
2022/05/06,12:40,0.577,0.859,0.548,1.041,0.737,0.347,0.600,0.565,��쓌,14.1,��
2022/05/06,12:50,0.576,0.860,0.549,1.040,0.736,0.347,0.601,0.564,��쓌,15.2,��
2022/05/06,13:00,0.576,0.860,0.546,1.042,0.738,0.350,0.599,0.564,��쓌,15.2,��
2022/05/06,13:10,0.579,0.859,0.547,1.042,0.737,0.347,0.601,0.564,��쓌,16.8,��
2022/05/06,13:20,0.577,0.859,0.548,1.042,0.738,0.349,0.600,0.564,��쓌,16.0,��
2022/05/06,13:30,0.578,0.859,0.549,1.044,0.738,0.347,0.600,0.565,��,14.4,��
2022/05/06,13:40,0.578,0.859,0.547,1.042,0.735,0.349,0.601,0.566,��쓌,14.4,��
2022/05/06,13:50,0.578,0.858,0.549,1.043,0.737,0.348,0.600,0.566,��쓌,12.7,��
2022/05/06,14:00,0.575,0.860,0.548,1.042,0.737,0.347,0.600,0.565,��,13.0,��
2022/05/06,14:10,0.576,0.861,0.547,1.043,0.739,0.347,0.599,0.565,��,10.2,��
2022/05/06,14:20,0.579,0.862,0.549,1.042,0.737,0.348,0.601,0.564,��,10.5,��
2022/05/06,14:30,0.577,0.860,0.548,1.040,0.740,0.348,0.601,0.565,��,12.4,��
2022/05/06,14:40,0.578,0.860,0.548,1.042,0.739,0.349,0.601,0.565,��쓌,13.2,��
2022/05/06,14:50,0.579,0.862,0.549,1.041,0.738,0.348,0.601,0.564,��,13.3,��
2022/05/06,15:00,0.578,0.861,0.548,1.042,0.737,0.348,0.599,0.565,��,13.3,��
2022/05/06,15:10,0.576,0.861,0.547,1.042,0.738,0.347,0.601,0.565,��쓌,11.4,��
2022/05/06,15:20,0.578,0.861,0.550,1.043,0.738,0.348,0.599,0.565,��쓌,13.3,��
2022/05/06,15:30,0.577,0.861,0.549,1.043,0.738,0.347,0.601,0.565,��쓌,12.2,��
2022/05/06,15:40,0.575,0.861,0.548,1.043,0.740,0.347,0.601,0.565,��,12.2,��
2022/05/06,15:50,0.578,0.860,0.548,1.045,0.741,0.347,0.600,0.565,��,11.0,��
2022/05/06,16:00,0.576,0.861,0.550,1.044,0.739,0.347,0.601,0.564,��,11.6,��
2022/05/06,16:10,0.576,0.860,0.549,1.043,0.738,0.348,0.600,0.564,��,12.5,��
2022/05/06,16:20,0.578,0.860,0.547,1.043,0.739,0.347,0.599,0.565,��,12.1,��
2022/05/06,16:30,0.578,0.861,0.547,1.045,0.738,0.348,0.600,0.565,��,11.8,��
2022/05/06,16:40,0.578,0.862,0.547,1.045,0.740,0.348,0.599,0.565,��,10.7,��
2022/05/06,16:50,0.577,0.862,0.548,1.044,0.737,0.348,0.600,0.565,��,10.4,��
2022/05/06,17:00,0.577,0.861,0.547,1.045,0.738,0.346,0.600,0.565,��,9.9,��
2022/05/06,17:10,0.576,0.862,0.548,1.046,0.738,0.347,0.600,0.565,��,9.7,��
2022/05/06,17:20,0.575,0.863,0.547,1.046,0.738,0.346,0.600,0.565,��,8.3,��
2022/05/06,17:30,0.577,0.862,0.546,1.044,0.741,0.348,0.600,0.565,��,7.9,��
2022/05/06,17:40,0.576,0.860,0.548,1.045,0.738,0.348,0.598,0.566,��쐼,6.7,��
2022/05/06,17:50,0.576,0.860,0.547,1.046,0.739,0.348,0.599,0.565,��,8.6,��
2022/05/06,18:00,0.577,0.861,0.548,1.048,0.737,0.348,0.598,0.565,��,8.1,��
2022/05/06,18:10,0.577,0.861,0.548,1.045,0.738,0.348,0.600,0.566,��,9.0,��
2022/05/06,18:20,0.577,0.860,0.547,1.047,0.738,0.346,0.600,0.567,��,10.6,��
2022/05/06,18:30,0.579,0.862,0.547,1.048,0.737,0.348,0.601,0.568,��,8.8,��
2022/05/06,18:40,0.578,0.862,0.546,1.047,0.738,0.348,0.600,0.568,��,9.0,��
2022/05/06,18:50,0.575,0.862,0.549,1.048,0.739,0.347,0.600,0.566,��,9.1,��
2022/05/06,19:00,0.577,0.862,0.548,1.048,0.738,0.348,0.602,0.566,��,8.4,��
2022/05/06,19:10,0.579,0.863,0.549,1.047,0.739,0.346,0.602,0.567,��,9.1,��
2022/05/06,19:20,0.579,0.865,0.549,1.048,0.740,0.349,0.601,0.566,��,8.6,��
2022/05/06,19:30,0.579,0.861,0.550,1.047,0.739,0.347,0.602,0.568,��,9.7,��
2022/05/06,19:40,0.580,0.865,0.550,1.046,0.740,0.346,0.601,0.567,��,9.9,��
2022/05/06,19:50,0.579,0.865,0.551,1.047,0.739,0.349,0.601,0.567,��,10.4,��
2022/05/06,20:00,0.578,0.865,0.551,1.047,0.740,0.348,0.602,0.566,��,9.2,��
2022/05/06,20:10,0.578,0.864,0.549,1.048,0.740,0.348,0.600,0.566,��,8.4,��
2022/05/06,20:20,0.578,0.864,0.549,1.046,0.739,0.350,0.602,0.566,��,9.1,��
2022/05/06,20:30,0.580,0.864,0.549,1.046,0.740,0.348,0.602,0.566,��,10.0,��
2022/05/06,20:40,0.579,0.867,0.551,1.047,0.739,0.348,0.601,0.567,��,9.7,��
2022/05/06,20:50,0.578,0.864,0.549,1.049,0.739,0.348,0.603,0.567,��,9.8,��
2022/05/06,21:00,0.579,0.865,0.550,1.048,0.740,0.349,0.601,0.567,��,9.4,��
2022/05/06,21:10,0.581,0.865,0.548,1.046,0.741,0.347,0.604,0.568,��,9.0,��
2022/05/06,21:20,0.578,0.865,0.549,1.047,0.741,0.348,0.602,0.566,��,9.4,��
2022/05/06,21:30,0.579,0.862,0.550,1.048,0.739,0.349,0.600,0.567,��,8.3,��
2022/05/06,21:40,0.579,0.864,0.550,1.049,0.741,0.350,0.601,0.566,��,10.4,��
2022/05/06,21:50,0.580,0.864,0.548,1.049,0.738,0.349,0.601,0.567,��,9.1,��
2022/05/06,22:00,0.579,0.864,0.549,1.046,0.741,0.350,0.601,0.566,��,8.0,��
2022/05/06,22:10,0.580,0.864,0.552,1.050,0.741,0.349,0.603,0.567,��,7.9,��
2022/05/06,22:20,0.578,0.864,0.550,1.047,0.740,0.349,0.602,0.565,��,6.8,��
2022/05/06,22:30,0.579,0.866,0.550,1.047,0.741,0.350,0.601,0.566,��,7.9,��
2022/05/06,22:40,0.579,0.865,0.548,1.047,0.740,0.350,0.602,0.567,��,7.6,��
2022/05/06,22:50,0.579,0.866,0.549,1.048,0.741,0.350,0.601,0.567,��,8.8,��
2022/05/06,23:00,0.580,0.864,0.549,1.048,0.741,0.350,0.603,0.567,��,9.1,��
2022/05/06,23:10,0.580,0.865,0.548,1.048,0.740,0.349,0.602,0.568,��,9.1,��
2022/05/06,23:20,0.580,0.865,0.551,1.045,0.741,0.350,0.603,0.566,��,9.2,��
2022/05/06,23:30,0.579,0.863,0.549,1.045,0.741,0.348,0.602,0.566,��,9.6,��
2022/05/06,23:40,0.580,0.864,0.550,1.049,0.740,0.347,0.602,0.568,��,8.8,��
2022/05/06,23:50,0.579,0.864,0.550,1.047,0.741,0.349,0.600,0.566,��,9.6,��
